owner,sensor,date,latitude,longitude,vertical_datum,sea_water_practical_salinity,qcFlag 
ENP,ioos.station.NOAA.NDBC:LSNF1:1,2014-12-01T00:00:00Z,25.2350,-80.4570,1.5,28.32,1111122 
ENP,ioos.station.NOAA.NDBC:LSNF1:1,2014-12-01T01:00:00Z,25.2350,-80.4570,1.5,28.32,1111122 
ENP,ioos.station.NOAA.NDBC:LSNF1:1,2014-12-01T02:00:00Z,25.2350,-80.4570,1.5,28.48,1111122 
ENP,ioos.station.NOAA.NDBC:LSNF1:1,2014-12-01T03:00:00Z,25.2350,-80.4570,1.5,28.98,1111122 
ENP,ioos.station.NOAA.NDBC:LSNF1:1,2014-12-01T04:00:00Z,25.2350,-80.4570,1.5,29.11,1111122 
ENP,ioos.station.NOAA.NDBC:LSNF1:1,2014-12-01T05:00:00Z,25.2350,-80.4570,1.5,29.25,1111122 
ENP,ioos.station.NOAA.NDBC:LSNF1:1,2014-12-01T06:00:00Z,25.2350,-80.4570,1.5,29.26,1111122 
ENP,ioos.station.NOAA.NDBC:LSNF1:1,2014-12-01T08:00:00Z,25.2350,-80.4570,1.5,29.05,1111122 
ENP,ioos.station.NOAA.NDBC:LSNF1:1,2014-12-01T09:00:00Z,25.2350,-80.4570,1.5,29.09,1111122 
ENP,ioos.station.NOAA.NDBC:LSNF1:1,2014-12-01T10:00:00Z,25.2350,-80.4570,1.5,29.24,1111122 
ENP,ioos.station.NOAA.NDBC:LSNF1:1,2014-12-01T16:00:00Z,25.2350,-80.4570,1.5,30.06,1111122 
ENP,ioos.station.NOAA.NDBC:LSNF1:1,2014-12-01T18:00:00Z,25.2350,-80.4570,1.5,30.13,1111122 
ENP,ioos.station.NOAA.NDBC:LSNF1:1,2014-12-01T19:00:00Z,25.2350,-80.4570,1.5,30.19,1111122 
ENP,ioos.station.NOAA.NDBC:LSNF1:1,2014-12-01T20:00:00Z,25.2350,-80.4570,1.5,30.22,1111122 
ENP,ioos.station.NOAA.NDBC:LSNF1:1,2014-12-01T21:00:00Z,25.2350,-80.4570,1.5,30.24,1111122 
ENP,ioos.station.NOAA.NDBC:LSNF1:1,2014-12-01T22:00:00Z,25.2350,-80.4570,1.5,30.24,1111122 
ENP,ioos.station.NOAA.NDBC:LSNF1:1,2014-12-01T23:00:00Z,25.2350,-80.4570,1.5,30.24,1111122 
ENP,ioos.station.NOAA.NDBC:LSNF1:1,2014-12-02T00:00:00Z,25.2350,-80.4570,1.5,30.28,1111122 
ENP,ioos.station.NOAA.NDBC:LSNF1:1,2014-12-02T01:00:00Z,25.2350,-80.4570,1.5,30.32,1111122 
ENP,ioos.station.NOAA.NDBC:LSNF1:1,2014-12-02T02:00:00Z,25.2350,-80.4570,1.5,30.38,1111122 
ENP,ioos.station.NOAA.NDBC:LSNF1:1,2014-12-02T03:00:00Z,25.2350,-80.4570,1.5,30.49,1111122 
ENP,ioos.station.NOAA.NDBC:LSNF1:1,2014-12-02T05:00:00Z,25.2350,-80.4570,1.5,30.68,1111122 
ENP,ioos.station.NOAA.NDBC:LSNF1:1,2014-12-02T06:00:00Z,25.2350,-80.4570,1.5,30.71,1111122 
ENP,ioos.station.NOAA.NDBC:LSNF1:1,2014-12-02T07:00:00Z,25.2350,-80.4570,1.5,30.71,1111122 
ENP,ioos.station.NOAA.NDBC:LSNF1:1,2014-12-02T09:00:00Z,25.2350,-80.4570,1.5,30.79,1111122 
ENP,ioos.station.NOAA.NDBC:LSNF1:1,2014-12-02T10:00:00Z,25.2350,-80.4570,1.5,30.81,1111122 
ENP,ioos.station.NOAA.NDBC:LSNF1:1,2014-12-02T11:00:00Z,25.2350,-80.4570,1.5,30.82,1111122 
ENP,ioos.station.NOAA.NDBC:LSNF1:1,2014-12-02T12:00:00Z,25.2350,-80.4570,1.5,30.84,1111122 
ENP,ioos.station.NOAA.NDBC:LSNF1:1,2014-12-02T13:00:00Z,25.2350,-80.4570,1.5,30.87,1111122 
ENP,ioos.station.NOAA.NDBC:LSNF1:1,2014-12-02T14:00:00Z,25.2350,-80.4570,1.5,30.92,1111122 
ENP,ioos.station.NOAA.NDBC:LSNF1:1,2014-12-02T15:00:00Z,25.2350,-80.4570,1.5,30.97,1111122 
ENP,ioos.station.NOAA.NDBC:LSNF1:1,2014-12-02T16:00:00Z,25.2350,-80.4570,1.5,31.05,1111122 
ENP,ioos.station.NOAA.NDBC:LSNF1:1,2014-12-02T17:00:00Z,25.2350,-80.4570,1.5,31.1,1111122 
ENP,ioos.station.NOAA.NDBC:LSNF1:1,2014-12-02T18:00:00Z,25.2350,-80.4570,1.5,31.12,1111122 
ENP,ioos.station.NOAA.NDBC:LSNF1:1,2014-12-02T19:00:00Z,25.2350,-80.4570,1.5,31.13,1111122 
ENP,ioos.station.NOAA.NDBC:LSNF1:1,2014-12-02T21:00:00Z,25.2350,-80.4570,1.5,31.15,1111122 
ENP,ioos.station.NOAA.NDBC:LSNF1:1,2014-12-02T22:00:00Z,25.2350,-80.4570,1.5,31.15,1111122 
ENP,ioos.station.NOAA.NDBC:LSNF1:1,2014-12-02T23:00:00Z,25.2350,-80.4570,1.5,31.14,1111122 
ENP,ioos.station.NOAA.NDBC:LSNF1:1,2014-12-03T00:00:00Z,25.2350,-80.4570,1.5,31.14,1111122 
ENP,ioos.station.NOAA.NDBC:LSNF1:1,2014-12-03T01:00:00Z,25.2350,-80.4570,1.5,31.14,1111122 
ENP,ioos.station.NOAA.NDBC:LSNF1:1,2014-12-03T02:00:00Z,25.2350,-80.4570,1.5,31.14,1111122 
ENP,ioos.station.NOAA.NDBC:LSNF1:1,2014-12-03T03:00:00Z,25.2350,-80.4570,1.5,31.14,1111122 
ENP,ioos.station.NOAA.NDBC:LSNF1:1,2014-12-03T04:00:00Z,25.2350,-80.4570,1.5,31.14,1111122 
ENP,ioos.station.NOAA.NDBC:LSNF1:1,2014-12-03T05:00:00Z,25.2350,-80.4570,1.5,31.15,1111122 
ENP,ioos.station.NOAA.NDBC:LSNF1:1,2014-12-03T06:00:00Z,25.2350,-80.4570,1.5,31.15,1111122 
ENP,ioos.station.NOAA.NDBC:LSNF1:1,2014-12-03T07:00:00Z,25.2350,-80.4570,1.5,31.18,1111122 
ENP,ioos.station.NOAA.NDBC:LSNF1:1,2014-12-03T08:00:00Z,25.2350,-80.4570,1.5,31.21,1111122 
ENP,ioos.station.NOAA.NDBC:LSNF1:1,2014-12-03T09:00:00Z,25.2350,-80.4570,1.5,31.26,1111122 
ENP,ioos.station.NOAA.NDBC:LSNF1:1,2014-12-03T10:00:00Z,25.2350,-80.4570,1.5,31.31,1111122 
ENP,ioos.station.NOAA.NDBC:LSNF1:1,2014-12-03T11:00:00Z,25.2350,-80.4570,1.5,31.34,1111122 
ENP,ioos.station.NOAA.NDBC:LSNF1:1,2014-12-03T12:00:00Z,25.2350,-80.4570,1.5,31.38,1111122 
ENP,ioos.station.NOAA.NDBC:LSNF1:1,2014-12-03T13:00:00Z,25.2350,-80.4570,1.5,31.42,1111122 
ENP,ioos.station.NOAA.NDBC:LSNF1:1,2014-12-03T14:00:00Z,25.2350,-80.4570,1.5,31.45,1111122 
ENP,ioos.station.NOAA.NDBC:LSNF1:1,2014-12-03T15:00:00Z,25.2350,-80.4570,1.5,31.47,1111122 
ENP,ioos.station.NOAA.NDBC:LSNF1:1,2014-12-03T16:00:00Z,25.2350,-80.4570,1.5,31.5,1111122 
ENP,ioos.station.NOAA.NDBC:LSNF1:1,2014-12-03T17:00:00Z,25.2350,-80.4570,1.5,31.5,1111122 
ENP,ioos.station.NOAA.NDBC:LSNF1:1,2014-12-03T18:00:00Z,25.2350,-80.4570,1.5,31.48,1111122 
ENP,ioos.station.NOAA.NDBC:LSNF1:1,2014-12-03T19:00:00Z,25.2350,-80.4570,1.5,31.46,1111122 
ENP,ioos.station.NOAA.NDBC:LSNF1:1,2014-12-03T20:00:00Z,25.2350,-80.4570,1.5,31.45,1111122 
ENP,ioos.station.NOAA.NDBC:LSNF1:1,2014-12-03T21:00:00Z,25.2350,-80.4570,1.5,31.44,1111122 
ENP,ioos.station.NOAA.NDBC:LSNF1:1,2014-12-03T22:00:00Z,25.2350,-80.4570,1.5,31.42,1111122 
ENP,ioos.station.NOAA.NDBC:LSNF1:1,2014-12-03T23:00:00Z,25.2350,-80.4570,1.5,31.42,1111122 
ENP,ioos.station.NOAA.NDBC:LSNF1:1,2014-12-04T00:00:00Z,25.2350,-80.4570,1.5,31.4,1111122 
ENP,ioos.station.NOAA.NDBC:LSNF1:1,2014-12-04T01:00:00Z,25.2350,-80.4570,1.5,31.39,1111122 
ENP,ioos.station.NOAA.NDBC:LSNF1:1,2014-12-04T02:00:00Z,25.2350,-80.4570,1.5,31.38,1111122 
ENP,ioos.station.NOAA.NDBC:LSNF1:1,2014-12-04T03:00:00Z,25.2350,-80.4570,1.5,31.37,1111122 
ENP,ioos.station.NOAA.NDBC:LSNF1:1,2014-12-04T04:00:00Z,25.2350,-80.4570,1.5,31.37,1111122 
ENP,ioos.station.NOAA.NDBC:LSNF1:1,2014-12-04T05:00:00Z,25.2350,-80.4570,1.5,31.36,1111122 
ENP,ioos.station.NOAA.NDBC:LSNF1:1,2014-12-04T06:00:00Z,25.2350,-80.4570,1.5,31.35,1111122 
ENP,ioos.station.NOAA.NDBC:LSNF1:1,2014-12-04T07:00:00Z,25.2350,-80.4570,1.5,31.34,1111122 
ENP,ioos.station.NOAA.NDBC:LSNF1:1,2014-12-04T09:00:00Z,25.2350,-80.4570,1.5,31.34,1111122 
ENP,ioos.station.NOAA.NDBC:LSNF1:1,2014-12-04T10:00:00Z,25.2350,-80.4570,1.5,31.34,1111122 
ENP,ioos.station.NOAA.NDBC:LSNF1:1,2014-12-04T11:00:00Z,25.2350,-80.4570,1.5,31.35,1111122 
ENP,ioos.station.NOAA.NDBC:LSNF1:1,2014-12-04T12:00:00Z,25.2350,-80.4570,1.5,31.38,1111122 
ENP,ioos.station.NOAA.NDBC:LSNF1:1,2014-12-04T13:00:00Z,25.2350,-80.4570,1.5,31.4,1111122 
ENP,ioos.station.NOAA.NDBC:LSNF1:1,2014-12-04T14:00:00Z,25.2350,-80.4570,1.5,31.39,1111122 
ENP,ioos.station.NOAA.NDBC:LSNF1:1,2014-12-04T15:00:00Z,25.2350,-80.4570,1.5,31.48,1111122 
ENP,ioos.station.NOAA.NDBC:LSNF1:1,2014-12-04T16:00:00Z,25.2350,-80.4570,1.5,31.5,1111122 
ENP,ioos.station.NOAA.NDBC:LSNF1:1,2014-12-04T17:00:00Z,25.2350,-80.4570,1.5,31.5,1111122 
ENP,ioos.station.NOAA.NDBC:LSNF1:1,2014-12-04T18:00:00Z,25.2350,-80.4570,1.5,31.49,1111122 
ENP,ioos.station.NOAA.NDBC:LSNF1:1,2014-12-04T19:00:00Z,25.2350,-80.4570,1.5,31.48,1111122 
ENP,ioos.station.NOAA.NDBC:LSNF1:1,2014-12-04T21:00:00Z,25.2350,-80.4570,1.5,31.47,1111122 
ENP,ioos.station.NOAA.NDBC:LSNF1:1,2014-12-04T22:00:00Z,25.2350,-80.4570,1.5,31.45,1111122 
ENP,ioos.station.NOAA.NDBC:LSNF1:1,2014-12-04T23:00:00Z,25.2350,-80.4570,1.5,31.42,1111122 
ENP,ioos.station.NOAA.NDBC:LSNF1:1,2014-12-05T00:00:00Z,25.2350,-80.4570,1.5,31.39,1111122 
ENP,ioos.station.NOAA.NDBC:LSNF1:1,2014-12-05T01:00:00Z,25.2350,-80.4570,1.5,31.37,1111122 
ENP,ioos.station.NOAA.NDBC:LSNF1:1,2014-12-05T02:00:00Z,25.2350,-80.4570,1.5,31.35,1111122 
ENP,ioos.station.NOAA.NDBC:LSNF1:1,2014-12-05T03:00:00Z,25.2350,-80.4570,1.5,31.34,1111122 
ENP,ioos.station.NOAA.NDBC:LSNF1:1,2014-12-05T05:00:00Z,25.2350,-80.4570,1.5,31.31,1111122 
ENP,ioos.station.NOAA.NDBC:LSNF1:1,2014-12-05T06:00:00Z,25.2350,-80.4570,1.5,31.31,1111122 
ENP,ioos.station.NOAA.NDBC:LSNF1:1,2014-12-05T07:00:00Z,25.2350,-80.4570,1.5,31.31,1111122 
ENP,ioos.station.NOAA.NDBC:LSNF1:1,2014-12-05T08:00:00Z,25.2350,-80.4570,1.5,31.3,1111122 
ENP,ioos.station.NOAA.NDBC:LSNF1:1,2014-12-05T09:00:00Z,25.2350,-80.4570,1.5,31.3,1111122 
ENP,ioos.station.NOAA.NDBC:LSNF1:1,2014-12-05T10:00:00Z,25.2350,-80.4570,1.5,31.29,1111122 
ENP,ioos.station.NOAA.NDBC:LSNF1:1,2014-12-05T11:00:00Z,25.2350,-80.4570,1.5,31.28,1111122 
ENP,ioos.station.NOAA.NDBC:LSNF1:1,2014-12-05T12:00:00Z,25.2350,-80.4570,1.5,31.26,1111122 
ENP,ioos.station.NOAA.NDBC:LSNF1:1,2014-12-05T13:00:00Z,25.2350,-80.4570,1.5,31.26,1111122 
ENP,ioos.station.NOAA.NDBC:LSNF1:1,2014-12-05T14:00:00Z,25.2350,-80.4570,1.5,31.25,1111122 
ENP,ioos.station.NOAA.NDBC:LSNF1:1,2014-12-05T15:00:00Z,25.2350,-80.4570,1.5,31.25,1111122 
ENP,ioos.station.NOAA.NDBC:LSNF1:1,2014-12-05T16:00:00Z,25.2350,-80.4570,1.5,31.26,1111122 
ENP,ioos.station.NOAA.NDBC:LSNF1:1,2014-12-05T17:00:00Z,25.2350,-80.4570,1.5,31.26,1111122 
ENP,ioos.station.NOAA.NDBC:LSNF1:1,2014-12-05T18:00:00Z,25.2350,-80.4570,1.5,31.27,1111122 
ENP,ioos.station.NOAA.NDBC:LSNF1:1,2014-12-05T19:00:00Z,25.2350,-80.4570,1.5,31.29,1111122 
ENP,ioos.station.NOAA.NDBC:LSNF1:1,2014-12-05T20:00:00Z,25.2350,-80.4570,1.5,31.29,1111122 
ENP,ioos.station.NOAA.NDBC:LSNF1:1,2014-12-05T21:00:00Z,25.2350,-80.4570,1.5,31.3,1111122 
ENP,ioos.station.NOAA.NDBC:LSNF1:1,2014-12-05T22:00:00Z,25.2350,-80.4570,1.5,31.29,1111122 
ENP,ioos.station.NOAA.NDBC:LSNF1:1,2014-12-05T23:00:00Z,25.2350,-80.4570,1.5,31.27,1111122 
ENP,ioos.station.NOAA.NDBC:LSNF1:1,2014-12-06T00:00:00Z,25.2350,-80.4570,1.5,31.25,1111122 
ENP,ioos.station.NOAA.NDBC:LSNF1:1,2014-12-06T01:00:00Z,25.2350,-80.4570,1.5,31.23,1111122 
ENP,ioos.station.NOAA.NDBC:LSNF1:1,2014-12-06T02:00:00Z,25.2350,-80.4570,1.5,31.23,1111122 
ENP,ioos.station.NOAA.NDBC:LSNF1:1,2014-12-06T03:00:00Z,25.2350,-80.4570,1.5,31.21,1111122 
ENP,ioos.station.NOAA.NDBC:LSNF1:1,2014-12-06T06:00:00Z,25.2350,-80.4570,1.5,31.19,1111122 
ENP,ioos.station.NOAA.NDBC:LSNF1:1,2014-12-06T07:00:00Z,25.2350,-80.4570,1.5,31.18,1111122 
ENP,ioos.station.NOAA.NDBC:LSNF1:1,2014-12-06T08:00:00Z,25.2350,-80.4570,1.5,31.18,1111122 
ENP,ioos.station.NOAA.NDBC:LSNF1:1,2014-12-06T09:00:00Z,25.2350,-80.4570,1.5,31.18,1111122 
ENP,ioos.station.NOAA.NDBC:LSNF1:1,2014-12-06T10:00:00Z,25.2350,-80.4570,1.5,31.18,1111122 
ENP,ioos.station.NOAA.NDBC:LSNF1:1,2014-12-06T11:00:00Z,25.2350,-80.4570,1.5,31.18,1111122 
ENP,ioos.station.NOAA.NDBC:LSNF1:1,2014-12-06T12:00:00Z,25.2350,-80.4570,1.5,31.18,1111122 
ENP,ioos.station.NOAA.NDBC:LSNF1:1,2014-12-06T13:00:00Z,25.2350,-80.4570,1.5,31.19,1111122 
ENP,ioos.station.NOAA.NDBC:LSNF1:1,2014-12-06T14:00:00Z,25.2350,-80.4570,1.5,31.2,1111122 
ENP,ioos.station.NOAA.NDBC:LSNF1:1,2014-12-06T15:00:00Z,25.2350,-80.4570,1.5,31.21,1111122 
ENP,ioos.station.NOAA.NDBC:LSNF1:1,2014-12-06T17:00:00Z,25.2350,-80.4570,1.5,31.24,1111122 
ENP,ioos.station.NOAA.NDBC:LSNF1:1,2014-12-06T18:00:00Z,25.2350,-80.4570,1.5,31.26,1111122 
ENP,ioos.station.NOAA.NDBC:LSNF1:1,2014-12-06T19:00:00Z,25.2350,-80.4570,1.5,31.29,1111122 
ENP,ioos.station.NOAA.NDBC:LSNF1:1,2014-12-06T20:00:00Z,25.2350,-80.4570,1.5,31.31,1111122 
ENP,ioos.station.NOAA.NDBC:LSNF1:1,2014-12-06T21:00:00Z,25.2350,-80.4570,1.5,31.34,1111122 
ENP,ioos.station.NOAA.NDBC:LSNF1:1,2014-12-06T22:00:00Z,25.2350,-80.4570,1.5,31.35,1111122 
ENP,ioos.station.NOAA.NDBC:LSNF1:1,2014-12-06T23:00:00Z,25.2350,-80.4570,1.5,31.35,1111122 
ENP,ioos.station.NOAA.NDBC:LSNF1:1,2014-12-07T00:00:00Z,25.2350,-80.4570,1.5,31.35,1111122 
ENP,ioos.station.NOAA.NDBC:LSNF1:1,2014-12-07T01:00:00Z,25.2350,-80.4570,1.5,31.35,1111122 
ENP,ioos.station.NOAA.NDBC:LSNF1:1,2014-12-07T02:00:00Z,25.2350,-80.4570,1.5,31.36,1111122 
ENP,ioos.station.NOAA.NDBC:LSNF1:1,2014-12-07T03:00:00Z,25.2350,-80.4570,1.5,31.37,1111122 
ENP,ioos.station.NOAA.NDBC:LSNF1:1,2014-12-07T04:00:00Z,25.2350,-80.4570,1.5,31.37,1111122 
ENP,ioos.station.NOAA.NDBC:LSNF1:1,2014-12-07T05:00:00Z,25.2350,-80.4570,1.5,31.37,1111122 
ENP,ioos.station.NOAA.NDBC:LSNF1:1,2014-12-07T06:00:00Z,25.2350,-80.4570,1.5,31.37,1111122 
ENP,ioos.station.NOAA.NDBC:LSNF1:1,2014-12-07T07:00:00Z,25.2350,-80.4570,1.5,31.37,1111122 
ENP,ioos.station.NOAA.NDBC:LSNF1:1,2014-12-07T09:00:00Z,25.2350,-80.4570,1.5,31.36,1111122 
ENP,ioos.station.NOAA.NDBC:LSNF1:1,2014-12-07T10:00:00Z,25.2350,-80.4570,1.5,31.36,1111122 
ENP,ioos.station.NOAA.NDBC:LSNF1:1,2014-12-07T11:00:00Z,25.2350,-80.4570,1.5,31.35,1111122 
ENP,ioos.station.NOAA.NDBC:LSNF1:1,2014-12-07T12:00:00Z,25.2350,-80.4570,1.5,31.36,1111122 
ENP,ioos.station.NOAA.NDBC:LSNF1:1,2014-12-07T13:00:00Z,25.2350,-80.4570,1.5,31.36,1111122 
ENP,ioos.station.NOAA.NDBC:LSNF1:1,2014-12-07T14:00:00Z,25.2350,-80.4570,1.5,31.36,1111122 
ENP,ioos.station.NOAA.NDBC:LSNF1:1,2014-12-07T15:00:00Z,25.2350,-80.4570,1.5,31.37,1111122 
ENP,ioos.station.NOAA.NDBC:LSNF1:1,2014-12-07T16:00:00Z,25.2350,-80.4570,1.5,31.39,1111122 
ENP,ioos.station.NOAA.NDBC:LSNF1:1,2014-12-07T17:00:00Z,25.2350,-80.4570,1.5,31.4,1111122 
ENP,ioos.station.NOAA.NDBC:LSNF1:1,2014-12-07T18:00:00Z,25.2350,-80.4570,1.5,31.42,1111122 
ENP,ioos.station.NOAA.NDBC:LSNF1:1,2014-12-07T19:00:00Z,25.2350,-80.4570,1.5,31.43,1111122 
ENP,ioos.station.NOAA.NDBC:LSNF1:1,2014-12-07T20:00:00Z,25.2350,-80.4570,1.5,31.45,1111122 
ENP,ioos.station.NOAA.NDBC:LSNF1:1,2014-12-07T21:00:00Z,25.2350,-80.4570,1.5,31.45,1111122 
ENP,ioos.station.NOAA.NDBC:LSNF1:1,2014-12-07T22:00:00Z,25.2350,-80.4570,1.5,31.46,1111122 
ENP,ioos.station.NOAA.NDBC:LSNF1:1,2014-12-07T23:00:00Z,25.2350,-80.4570,1.5,31.47,1111122 
ENP,ioos.station.NOAA.NDBC:LSNF1:1,2014-12-08T00:00:00Z,25.2350,-80.4570,1.5,31.46,1111122 
ENP,ioos.station.NOAA.NDBC:LSNF1:1,2014-12-08T01:00:00Z,25.2350,-80.4570,1.5,31.46,1111122 
ENP,ioos.station.NOAA.NDBC:LSNF1:1,2014-12-08T02:00:00Z,25.2350,-80.4570,1.5,31.47,1111122 
ENP,ioos.station.NOAA.NDBC:LSNF1:1,2014-12-08T03:00:00Z,25.2350,-80.4570,1.5,31.47,1111122 
ENP,ioos.station.NOAA.NDBC:LSNF1:1,2014-12-08T05:00:00Z,25.2350,-80.4570,1.5,31.49,1111122 
ENP,ioos.station.NOAA.NDBC:LSNF1:1,2014-12-08T06:00:00Z,25.2350,-80.4570,1.5,31.49,1111122 
ENP,ioos.station.NOAA.NDBC:LSNF1:1,2014-12-08T07:00:00Z,25.2350,-80.4570,1.5,31.5,1111122 
ENP,ioos.station.NOAA.NDBC:LSNF1:1,2014-12-08T08:00:00Z,25.2350,-80.4570,1.5,31.5,1111122 
ENP,ioos.station.NOAA.NDBC:LSNF1:1,2014-12-08T09:00:00Z,25.2350,-80.4570,1.5,31.5,1111122 
ENP,ioos.station.NOAA.NDBC:LSNF1:1,2014-12-08T10:00:00Z,25.2350,-80.4570,1.5,31.5,1111122 
ENP,ioos.station.NOAA.NDBC:LSNF1:1,2014-12-08T11:00:00Z,25.2350,-80.4570,1.5,31.5,1111122 
ENP,ioos.station.NOAA.NDBC:LSNF1:1,2014-12-08T13:00:00Z,25.2350,-80.4570,1.5,31.28,1111122 
ENP,ioos.station.NOAA.NDBC:LSNF1:1,2014-12-08T15:00:00Z,25.2350,-80.4570,1.5,31.19,1111122 
ENP,ioos.station.NOAA.NDBC:LSNF1:1,2014-12-08T17:00:00Z,25.2350,-80.4570,1.5,31.18,1111122 
ENP,ioos.station.NOAA.NDBC:LSNF1:1,2014-12-08T18:00:00Z,25.2350,-80.4570,1.5,31.19,1111122 
ENP,ioos.station.NOAA.NDBC:LSNF1:1,2014-12-08T19:00:00Z,25.2350,-80.4570,1.5,31.21,1111122 
ENP,ioos.station.NOAA.NDBC:LSNF1:1,2014-12-08T20:00:00Z,25.2350,-80.4570,1.5,31.22,1111122 
ENP,ioos.station.NOAA.NDBC:LSNF1:1,2014-12-08T21:00:00Z,25.2350,-80.4570,1.5,31.23,1111122 
ENP,ioos.station.NOAA.NDBC:LSNF1:1,2014-12-08T22:00:00Z,25.2350,-80.4570,1.5,31.23,1111122 
ENP,ioos.station.NOAA.NDBC:LSNF1:1,2014-12-09T00:00:00Z,25.2350,-80.4570,1.5,31.25,1111122 
ENP,ioos.station.NOAA.NDBC:LSNF1:1,2014-12-09T01:00:00Z,25.2350,-80.4570,1.5,31.26,1111122 
ENP,ioos.station.NOAA.NDBC:LSNF1:1,2014-12-09T02:00:00Z,25.2350,-80.4570,1.5,31.27,1111122 
ENP,ioos.station.NOAA.NDBC:LSNF1:1,2014-12-09T03:00:00Z,25.2350,-80.4570,1.5,31.29,1111122 
ENP,ioos.station.NOAA.NDBC:LSNF1:1,2014-12-09T04:00:00Z,25.2350,-80.4570,1.5,31.3,1111122 
ENP,ioos.station.NOAA.NDBC:LSNF1:1,2014-12-09T05:00:00Z,25.2350,-80.4570,1.5,31.32,1111122 
ENP,ioos.station.NOAA.NDBC:LSNF1:1,2014-12-09T06:00:00Z,25.2350,-80.4570,1.5,31.34,1111122 
ENP,ioos.station.NOAA.NDBC:LSNF1:1,2014-12-09T07:00:00Z,25.2350,-80.4570,1.5,31.37,1111122 
ENP,ioos.station.NOAA.NDBC:LSNF1:1,2014-12-09T08:00:00Z,25.2350,-80.4570,1.5,31.42,1111122 
ENP,ioos.station.NOAA.NDBC:LSNF1:1,2014-12-09T09:00:00Z,25.2350,-80.4570,1.5,31.47,1111122 
ENP,ioos.station.NOAA.NDBC:LSNF1:1,2014-12-09T10:00:00Z,25.2350,-80.4570,1.5,31.52,1111122 
ENP,ioos.station.NOAA.NDBC:LSNF1:1,2014-12-09T11:00:00Z,25.2350,-80.4570,1.5,31.54,1111122 
ENP,ioos.station.NOAA.NDBC:LSNF1:1,2014-12-09T12:00:00Z,25.2350,-80.4570,1.5,31.55,1111122 
ENP,ioos.station.NOAA.NDBC:LSNF1:1,2014-12-09T13:00:00Z,25.2350,-80.4570,1.5,31.54,1111122 
ENP,ioos.station.NOAA.NDBC:LSNF1:1,2014-12-09T14:00:00Z,25.2350,-80.4570,1.5,31.55,1111122 
ENP,ioos.station.NOAA.NDBC:LSNF1:1,2014-12-09T15:00:00Z,25.2350,-80.4570,1.5,31.56,1111122 
ENP,ioos.station.NOAA.NDBC:LSNF1:1,2014-12-09T16:00:00Z,25.2350,-80.4570,1.5,31.57,1111122 
ENP,ioos.station.NOAA.NDBC:LSNF1:1,2014-12-09T17:00:00Z,25.2350,-80.4570,1.5,31.58,1111122 
ENP,ioos.station.NOAA.NDBC:LSNF1:1,2014-12-09T18:00:00Z,25.2350,-80.4570,1.5,31.59,1111122 
ENP,ioos.station.NOAA.NDBC:LSNF1:1,2014-12-09T19:00:00Z,25.2350,-80.4570,1.5,31.6,1111122 
ENP,ioos.station.NOAA.NDBC:LSNF1:1,2014-12-09T20:00:00Z,25.2350,-80.4570,1.5,31.61,1111122 
ENP,ioos.station.NOAA.NDBC:LSNF1:1,2014-12-09T21:00:00Z,25.2350,-80.4570,1.5,31.61,1111122 
ENP,ioos.station.NOAA.NDBC:LSNF1:1,2014-12-09T22:00:00Z,25.2350,-80.4570,1.5,31.62,1111122 
ENP,ioos.station.NOAA.NDBC:LSNF1:1,2014-12-09T23:00:00Z,25.2350,-80.4570,1.5,31.63,1111122 
ENP,ioos.station.NOAA.NDBC:LSNF1:1,2014-12-10T00:00:00Z,25.2350,-80.4570,1.5,31.63,1111122 
ENP,ioos.station.NOAA.NDBC:LSNF1:1,2014-12-10T01:00:00Z,25.2350,-80.4570,1.5,31.65,1111122 
ENP,ioos.station.NOAA.NDBC:LSNF1:1,2014-12-10T03:00:00Z,25.2350,-80.4570,1.5,31.66,1111122 
ENP,ioos.station.NOAA.NDBC:LSNF1:1,2014-12-10T04:00:00Z,25.2350,-80.4570,1.5,31.66,1111122 
ENP,ioos.station.NOAA.NDBC:LSNF1:1,2014-12-10T05:00:00Z,25.2350,-80.4570,1.5,31.66,1111122 
ENP,ioos.station.NOAA.NDBC:LSNF1:1,2014-12-10T06:00:00Z,25.2350,-80.4570,1.5,31.65,1111122 
ENP,ioos.station.NOAA.NDBC:LSNF1:1,2014-12-10T07:00:00Z,25.2350,-80.4570,1.5,31.65,1111122 
ENP,ioos.station.NOAA.NDBC:LSNF1:1,2014-12-10T08:00:00Z,25.2350,-80.4570,1.5,31.64,1111122 
ENP,ioos.station.NOAA.NDBC:LSNF1:1,2014-12-10T09:00:00Z,25.2350,-80.4570,1.5,31.63,1111122 
ENP,ioos.station.NOAA.NDBC:LSNF1:1,2014-12-10T10:00:00Z,25.2350,-80.4570,1.5,31.63,1111122 
ENP,ioos.station.NOAA.NDBC:LSNF1:1,2014-12-10T11:00:00Z,25.2350,-80.4570,1.5,31.61,1111122 
ENP,ioos.station.NOAA.NDBC:LSNF1:1,2014-12-10T12:00:00Z,25.2350,-80.4570,1.5,31.62,1111122 
ENP,ioos.station.NOAA.NDBC:LSNF1:1,2014-12-10T13:00:00Z,25.2350,-80.4570,1.5,31.61,1111122 
ENP,ioos.station.NOAA.NDBC:LSNF1:1,2014-12-10T14:00:00Z,25.2350,-80.4570,1.5,31.61,1111122 
ENP,ioos.station.NOAA.NDBC:LSNF1:1,2014-12-10T15:00:00Z,25.2350,-80.4570,1.5,31.63,1111122 
ENP,ioos.station.NOAA.NDBC:LSNF1:1,2014-12-10T16:00:00Z,25.2350,-80.4570,1.5,31.64,1111122 
ENP,ioos.station.NOAA.NDBC:LSNF1:1,2014-12-10T17:00:00Z,25.2350,-80.4570,1.5,31.64,1111122 
ENP,ioos.station.NOAA.NDBC:LSNF1:1,2014-12-10T18:00:00Z,25.2350,-80.4570,1.5,31.64,1111122 
ENP,ioos.station.NOAA.NDBC:LSNF1:1,2014-12-10T19:00:00Z,25.2350,-80.4570,1.5,31.64,1111122 
ENP,ioos.station.NOAA.NDBC:LSNF1:1,2014-12-10T21:00:00Z,25.2350,-80.4570,1.5,31.66,1111122 
ENP,ioos.station.NOAA.NDBC:LSNF1:1,2014-12-10T22:00:00Z,25.2350,-80.4570,1.5,31.66,1111122 
ENP,ioos.station.NOAA.NDBC:LSNF1:1,2014-12-10T23:00:00Z,25.2350,-80.4570,1.5,31.68,1111122 
ENP,ioos.station.NOAA.NDBC:LSNF1:1,2014-12-11T00:00:00Z,25.2350,-80.4570,1.5,31.69,1111122 
ENP,ioos.station.NOAA.NDBC:LSNF1:1,2014-12-11T01:00:00Z,25.2350,-80.4570,1.5,31.71,1111122 
ENP,ioos.station.NOAA.NDBC:LSNF1:1,2014-12-11T02:00:00Z,25.2350,-80.4570,1.5,31.71,1111122 
ENP,ioos.station.NOAA.NDBC:LSNF1:1,2014-12-11T03:00:00Z,25.2350,-80.4570,1.5,31.72,1111122 
ENP,ioos.station.NOAA.NDBC:LSNF1:1,2014-12-11T04:00:00Z,25.2350,-80.4570,1.5,31.72,1111122 
ENP,ioos.station.NOAA.NDBC:LSNF1:1,2014-12-11T05:00:00Z,25.2350,-80.4570,1.5,31.73,1111122 
ENP,ioos.station.NOAA.NDBC:LSNF1:1,2014-12-11T06:00:00Z,25.2350,-80.4570,1.5,31.71,1111122 
ENP,ioos.station.NOAA.NDBC:LSNF1:1,2014-12-11T07:00:00Z,25.2350,-80.4570,1.5,31.72,1111122 
ENP,ioos.station.NOAA.NDBC:LSNF1:1,2014-12-11T09:00:00Z,25.2350,-80.4570,1.5,31.72,1111122 
ENP,ioos.station.NOAA.NDBC:LSNF1:1,2014-12-11T10:00:00Z,25.2350,-80.4570,1.5,31.71,1111122 
ENP,ioos.station.NOAA.NDBC:LSNF1:1,2014-12-11T11:00:00Z,25.2350,-80.4570,1.5,31.72,1111122 
ENP,ioos.station.NOAA.NDBC:LSNF1:1,2014-12-11T12:00:00Z,25.2350,-80.4570,1.5,31.71,1111122 
ENP,ioos.station.NOAA.NDBC:LSNF1:1,2014-12-11T13:00:00Z,25.2350,-80.4570,1.5,31.72,1111122 
ENP,ioos.station.NOAA.NDBC:LSNF1:1,2014-12-11T14:00:00Z,25.2350,-80.4570,1.5,31.73,1111122 
ENP,ioos.station.NOAA.NDBC:LSNF1:1,2014-12-11T15:00:00Z,25.2350,-80.4570,1.5,31.74,1111122 
ENP,ioos.station.NOAA.NDBC:LSNF1:1,2014-12-11T16:00:00Z,25.2350,-80.4570,1.5,31.72,1111122 
ENP,ioos.station.NOAA.NDBC:LSNF1:1,2014-12-11T17:00:00Z,25.2350,-80.4570,1.5,31.74,1111122 
ENP,ioos.station.NOAA.NDBC:LSNF1:1,2014-12-11T18:00:00Z,25.2350,-80.4570,1.5,31.77,1111122 
ENP,ioos.station.NOAA.NDBC:LSNF1:1,2014-12-11T19:00:00Z,25.2350,-80.4570,1.5,31.78,1111122 
ENP,ioos.station.NOAA.NDBC:LSNF1:1,2014-12-11T21:00:00Z,25.2350,-80.4570,1.5,31.81,1111122 
ENP,ioos.station.NOAA.NDBC:LSNF1:1,2014-12-11T22:00:00Z,25.2350,-80.4570,1.5,31.81,1111122 
ENP,ioos.station.NOAA.NDBC:LSNF1:1,2014-12-11T23:00:00Z,25.2350,-80.4570,1.5,31.81,1111122 
ENP,ioos.station.NOAA.NDBC:LSNF1:1,2014-12-12T00:00:00Z,25.2350,-80.4570,1.5,31.82,1111122 
ENP,ioos.station.NOAA.NDBC:LSNF1:1,2014-12-12T01:00:00Z,25.2350,-80.4570,1.5,31.82,1111122 
ENP,ioos.station.NOAA.NDBC:LSNF1:1,2014-12-12T02:00:00Z,25.2350,-80.4570,1.5,31.82,1111122 
ENP,ioos.station.NOAA.NDBC:LSNF1:1,2014-12-12T03:00:00Z,25.2350,-80.4570,1.5,31.83,1111122 
ENP,ioos.station.NOAA.NDBC:LSNF1:1,2014-12-12T04:00:00Z,25.2350,-80.4570,1.5,31.84,1111122 
ENP,ioos.station.NOAA.NDBC:LSNF1:1,2014-12-12T05:00:00Z,25.2350,-80.4570,1.5,31.85,1111122 
ENP,ioos.station.NOAA.NDBC:LSNF1:1,2014-12-12T06:00:00Z,25.2350,-80.4570,1.5,31.86,1111122 
ENP,ioos.station.NOAA.NDBC:LSNF1:1,2014-12-12T07:00:00Z,25.2350,-80.4570,1.5,31.87,1111122 
ENP,ioos.station.NOAA.NDBC:LSNF1:1,2014-12-12T08:00:00Z,25.2350,-80.4570,1.5,31.87,1111122 
ENP,ioos.station.NOAA.NDBC:LSNF1:1,2014-12-12T09:00:00Z,25.2350,-80.4570,1.5,31.87,1111122 
ENP,ioos.station.NOAA.NDBC:LSNF1:1,2014-12-12T10:00:00Z,25.2350,-80.4570,1.5,31.88,1111122 
ENP,ioos.station.NOAA.NDBC:LSNF1:1,2014-12-12T11:00:00Z,25.2350,-80.4570,1.5,31.88,1111122 
ENP,ioos.station.NOAA.NDBC:LSNF1:1,2014-12-12T12:00:00Z,25.2350,-80.4570,1.5,31.88,1111122 
ENP,ioos.station.NOAA.NDBC:LSNF1:1,2014-12-12T13:00:00Z,25.2350,-80.4570,1.5,31.89,1111122 
ENP,ioos.station.NOAA.NDBC:LSNF1:1,2014-12-12T14:00:00Z,25.2350,-80.4570,1.5,31.9,1111122 
ENP,ioos.station.NOAA.NDBC:LSNF1:1,2014-12-12T15:00:00Z,25.2350,-80.4570,1.5,31.9,1111122 
ENP,ioos.station.NOAA.NDBC:LSNF1:1,2014-12-12T16:00:00Z,25.2350,-80.4570,1.5,31.91,1111122 
ENP,ioos.station.NOAA.NDBC:LSNF1:1,2014-12-12T17:00:00Z,25.2350,-80.4570,1.5,31.91,1111122 
ENP,ioos.station.NOAA.NDBC:LSNF1:1,2014-12-12T18:00:00Z,25.2350,-80.4570,1.5,31.93,1111122 
ENP,ioos.station.NOAA.NDBC:LSNF1:1,2014-12-12T19:00:00Z,25.2350,-80.4570,1.5,31.95,1111122 
ENP,ioos.station.NOAA.NDBC:LSNF1:1,2014-12-12T20:00:00Z,25.2350,-80.4570,1.5,31.95,1111122 
ENP,ioos.station.NOAA.NDBC:LSNF1:1,2014-12-12T21:00:00Z,25.2350,-80.4570,1.5,31.96,1111122 